User: anonymous   Login
Location: Brede
(50.9167°N, 0.6000°E)
Time: 00:41:11
(UTC+00:00)
Language:

Cosmos 1937 Rocket - Orbit

View from above orbital plane
View from above orbital plane
View from above satellite
View from above satellite

Ground track
Ground track

The orbit data is extracted from the following two-line orbital elements,

1 19039U 88029B   20292.89591472 +.00000053 +00000-0 +25685-4 0  9997
2 19039 074.0489 213.1401 0022447 083.5024 276.8685 14.38488916705948
Epoch (UTC): 18 October 2020 21:30:07
Eccentricity: 0.0022447
inclination: 74.0489°
perigee height: 747 km
apogee height: 779 km
right ascension of ascending node: 213.1401°
argument of perigee: 83.5024°
revolutions per day: 14.38488916
mean anomaly at epoch: 276.8685°
orbit number at epoch: 70594

The dashed part of the orbit path shows where the satellite is in the earth's shadow,  

DLR